KE8TTQ-1 Weather Reports


Display with metric or nautical units.
time (UTC)temp
F
wind
direction
speed
MPH
gust
MPH
rain 1hr
in
rain 24hr
in
rain mn
in
humidity
%
barometer
mb
20260903051240 78 0.0 0.0 0.00 0.00 0.00 10 1017.6
20260903033239 79 0.0 0.0 0.00 0.00 0.00 10 1017.6
20260903015234 81 0.0 0.0 0.00 0.00 0.00 10 1017.9
20260903013235 82 0.0 0.0 0.00 0.00 0.00 10 1017.6
20260903011234 82 0.0 0.0 0.00 0.00 0.00 10 1017.6
20260902235235 89 0.0 0.0 0.00 0.00 0.00 88 1016.9
20260902223234 94 0.0 0.0 0.00 0.00 0.00 48 1016.9
20260902203233 98 0.0 0.0 0.00 0.00 0.00 45 1017.2
20260902201233 98 0.0 0.0 0.00 0.00 0.00 44 1017.6
20260902195233 99 0.0 0.0 0.00 0.00 0.00 44 1017.6
20260902185233 98 0.0 0.0 0.00 0.00 0.00 45 1018.2
20260902175233 100 0.0 0.0 0.00 0.00 0.00 47 1018.6
20260902173233 99 0.0 0.0 0.00 0.00 0.00 48 1018.9
20260902163233 103 0.0 0.0 0.00 0.00 0.00 42 1019.6
20260902125233 81 0.0 0.0 0.00 0.00 0.00 10 1019.9
20260902123232 80 0.0 0.0 0.00 0.00 0.00 10 1019.9
20260902115233 76 0.0 0.0 0.00 0.00 0.00 10 1019.6
20260902113233 73 0.0 0.0 0.00 0.00 0.00 10 1019.6
20260902095232 73 0.0 0.0 0.00 0.00 0.00 10 1019.3
20260902093232 73 0.0 0.0 0.00 0.00 0.00 10 1019.3
20260902083232 74 0.0 0.0 0.00 0.00 0.00 10 1018.9
20260902081231 74 0.0 0.0 0.00 0.00 0.00 10 1018.9
20260902075232 74 0.0 0.0 0.00 0.00 0.00 10 1018.6
20260902073231 75 0.0 0.0 0.00 0.00 0.00 10 1018.6
20260902071231 75 0.0 0.0 0.00 0.00 0.00 10 1018.6
20260902065232 75 0.0 0.0 0.00 0.00 0.00 10 1018.2
20260902061231 76 0.0 0.0 0.00 0.00 0.00 10 1018.2
20260902055231 77 0.0 0.0 0.00 0.00 0.00 10 1018.6